Location: Newark
(13.2833°S, 176.1833°W)
Time: 18:37:30
(UTC+00:00)

LightSail 2 - Visible Passes

Search period start: 22 November 2019 00:00
Search period end: 02 December 2019 00:00
Orbit: 698 x 729 km, 24.0° (Epoch: 22 November)

Date Brightness Start Highest point End Pass type
(mag) Time Alt. Az. Time Alt. Az. Time Alt. Az.
24 Nov 7.4 16:35:17 10° N 16:37:36 13° NNE 16:39:55 10° NE visible
26 Nov 6.8 16:23:08 10° NNW 16:27:11 23° NNE 16:31:15 10° ENE visible
27 Nov 7.1 15:28:20 15° NNE 15:29:14 16° NNE 15:32:22 10° ENE visible
28 Nov 6.0 16:12:58 16° NW 16:16:43 41° NNE 16:21:34 10° E visible
29 Nov 6.4 15:18:36 28° NNE 15:18:47 28° NNE 15:23:10 10° E visible
30 Nov 7.8 14:24:12 11° ENE 14:24:12 11° ENE 14:24:31 10° ENE visible
30 Nov 5.2 16:03:10 24° WNW 16:06:14 72° NNE 16:11:24 10° ESE visible
01 Dec 5.6 15:08:44 48° NE 15:08:44 48° NE 15:13:15 10° E visible
